Fitchburg, MA

1:55 AM EDT on April 25, 2017 (GMT -0400)
Fitchburg Municipal

Weather History for KFIT - August, 2012

Change the Weather History Date:

Monday, August 27, 2012

  Actual Average (KORH) Record (KORH)
Temperature  
Mean Temperature 72 °F -  
Max Temperature 86 °F 77 °F 94 °F (1948)
Min Temperature 59 °F 60 °F 41 °F (1944)
Cooling Degree Days 8    
Growing Degree Days 22 (Base 50)    
Moisture  
Dew Point 62 °F    
Average Humidity 70    
Maximum Humidity 90    
Minimum Humidity 46    
Precipitation  
Precipitation 0.00 in - - ()
Sea Level Pressure  
Sea Level Pressure 30.09 in    
Wind  
Wind Speed 4 mph (SSW)    
Max Wind Speed 13 mph    
Max Gust Speed 21 mph    
Visibility 10 miles    
Events      
Averages and records for this station are not official NWS values.
T = Trace of Precipitation, MM = Missing Value Source: NWS Daily Summary

Daily Weather History Graph

Daily Weather History Graph

Search for Another Location

Airport or City:

Trip Planner

Search our weather history database for the weather conditions in past years. The results will help you decide how hot, cold, wet, or windy it might be!

Date:

Astronomy

Aug. 27, 2012 Rise Set
Actual Time 6:07 AM EDT 7:28 PM EDT
Civil Twilight 5:37 AM EDT 7:58 PM EDT
Nautical Twilight 5:02 AM EDT 8:33 PM EDT
Astronomical Twilight 4:25 AM EDT 9:10 PM EDT
Moon 4:49 PM EDT (8/27) 1:43 AM EDT (8/27)
Length of Visible Light 14h 20m
Length of Day
13h 21m
Waxing Gibbous, 82% of the Moon is Illuminated
Aug 27
Waxing Gibbous
Aug 31
Full
Sep 8
Last Quarter
Sep 15
New
Sep 22
First Quarter

Hourly Weather History & Observations

Time (EDT) Temp. Heat Index Dew Point Humidity Pressure Visibility Wind Dir Wind Speed Gust Speed Precip Events Conditions
12:52 AM 63.0 °F - 60.1 °F 90% 30.24 in 10.0 mi Calm Calm - N/A   Clear
1:52 AM 62.1 °F - 59.0 °F 90% 30.22 in 10.0 mi Calm Calm - N/A   Clear
2:52 AM 61.0 °F - 57.0 °F 87% 30.21 in 10.0 mi Calm Calm - N/A   Clear
3:52 AM 60.1 °F - 57.0 °F 90% 30.20 in 10.0 mi Calm Calm - N/A   Clear
4:52 AM 59.0 °F - 55.9 °F 90% 30.20 in 10.0 mi Calm Calm - N/A   Clear
5:52 AM 59.0 °F - 55.9 °F 90% 30.20 in 10.0 mi Calm Calm - N/A   Clear
6:52 AM 60.1 °F - 57.0 °F 90% 30.21 in 10.0 mi Calm Calm - N/A   Clear
7:52 AM 64.9 °F - 60.1 °F 84% 30.19 in 10.0 mi Calm Calm - N/A   Clear
8:52 AM 71.1 °F - 60.1 °F 68% 30.20 in 10.0 mi Calm Calm - N/A   Clear
9:52 AM 75.9 °F - 61.0 °F 60% 30.18 in 10.0 mi West 6.9 mph - N/A   Clear
10:52 AM 78.1 °F - 60.1 °F 54% 30.17 in 10.0 mi SW 6.9 mph - N/A   Clear
11:52 AM 81.0 °F 81.6 °F 60.1 °F 49% 30.14 in 10.0 mi SW 8.1 mph - N/A   Clear
12:52 PM 82.9 °F 83.7 °F 62.1 °F 49% 30.10 in 10.0 mi South 8.1 mph - N/A   Clear
1:52 PM 84.9 °F 86.1 °F 64.0 °F 49% 30.08 in 10.0 mi SW 10.4 mph - N/A   Partly Cloudy
2:52 PM 86.0 °F 87.3 °F 64.0 °F 48% 30.06 in 10.0 mi SW 12.7 mph 17.3 mph N/A   Scattered Clouds
3:52 PM 84.0 °F 84.4 °F 61.0 °F 46% 30.04 in 10.0 mi SSW 11.5 mph - N/A   Clear
4:52 PM 82.9 °F 84.4 °F 64.0 °F 53% 30.02 in 10.0 mi South 12.7 mph 20.7 mph N/A   Scattered Clouds
5:52 PM 82.0 °F 83.1 °F 63.0 °F 52% 30.01 in 10.0 mi SSW 11.5 mph 19.6 mph N/A   Clear
6:52 PM 79.0 °F - 64.9 °F 62% 29.99 in 10.0 mi South 8.1 mph 18.4 mph N/A   Clear
7:52 PM 77.0 °F - 66.0 °F 69% 29.99 in 10.0 mi South 12.7 mph - N/A   Clear
8:52 PM 75.0 °F - 66.9 °F 76% 29.98 in 10.0 mi South 5.8 mph - N/A   Partly Cloudy
9:09 PM 75.2 °F - 66.2 °F 73% 29.98 in 10.0 mi SSW 8.1 mph - N/A   Mostly Cloudy
9:43 PM 75.2 °F - 66.2 °F 73% 29.96 in 10.0 mi Variable 4.6 mph - N/A   Scattered Clouds
9:52 PM 75.0 °F - 66.9 °F 76% 29.96 in 10.0 mi SW 8.1 mph - N/A   Partly Cloudy
10:47 PM 75.2 °F - 66.2 °F 73% 29.96 in 10.0 mi SW 5.8 mph - N/A   Mostly Cloudy
10:52 PM 75.0 °F - 66.9 °F 76% 29.95 in 10.0 mi Variable 5.8 mph - N/A   Mostly Cloudy
11:52 PM 75.9 °F - 66.9 °F 74% 29.94 in 10.0 mi SSW 5.8 mph - N/A   Mostly Cloudy